DW3589 Weather Reports


time (UTC)temp
F
wind
direction
speed
knots
gust
knots
rain 1hr
in
rain 24hr
in
rain mn
in
humidity
%
barometer
mb
20260507150520 70 0.0 0.0 0.00 0.00 0.00 57 1011.9
20260507145520 70 0.0 0.0 0.00 0.00 0.00 58 1011.9
20260507144520 70 0.0 0.0 0.00 0.00 0.00 58 1012.0
20260507143520 70 0.0 0.0 0.00 0.00 0.00 57 1012.0
20260507142519 69 0.0 0.0 0.00 0.00 0.00 58 1012.1
20260507141519 69 0.0 0.0 0.00 0.00 0.00 58 1012.3
20260507140600 70 0.0 0.0 0.00 0.00 0.00 56 1012.3
20260507135520 69 0.0 0.0 0.00 0.00 0.00 58 1012.3
20260507134539 70 0.0 0.0 0.00 0.00 0.00 57 1012.3
20260507133520 70 0.0 0.0 0.00 0.00 0.00 58 1012.6
20260507132520 68 0.0 0.0 0.00 0.00 0.00 61 1012.6
20260507131519 69 0.0 0.0 0.00 0.00 0.00 60 1012.6
20260507130540 69 0.0 0.0 0.00 0.00 0.00 60 1012.6
20260507125519 68 0.0 0.0 0.00 0.00 0.00 61 1012.7
20260507124519 68 0.0 0.0 0.00 0.00 0.00 60 1012.8
20260507123520 69 0.0 0.0 0.00 0.00 0.00 60 1013.0
20260507122520 69 0.0 0.0 0.00 0.00 0.00 62 1013.0
20260507121538 68 0.0 0.0 0.00 0.00 0.00 61 1013.1
20260507120520 68 0.0 0.0 0.00 0.00 0.00 61 1013.2
20260507115520 68 0.0 0.0 0.00 0.00 0.00 61 1013.3
20260507114519 67 0.0 0.0 0.00 0.00 0.00 64 1013.3
20260507113517 68 0.0 0.0 0.00 0.00 0.00 64 1013.4
20260507112541 68 0.0 0.0 0.00 0.00 0.00 65 1013.3
20260507111518 69 0.0 0.0 0.00 0.00 0.00 65 1013.3
20260507110520 69 0.0 0.0 0.00 0.00 0.00 63 1013.3
20260507105558 68 0.0 0.0 0.00 0.00 0.00 63 1013.3
20260507104518 68 0.0 0.0 0.00 0.00 0.00 66 1013.4
20260507103518 67 0.0 0.0 0.00 0.00 0.00 71 1013.5
20260507102538 66 0.0 0.0 0.00 0.00 0.00 72 1013.6
20260507101518 65 0.0 0.0 0.00 0.00 0.00 76 1013.5
20260507100518 64 0.0 0.0 0.00 0.00 0.00 74 1013.5
20260507095518 66 0.0 0.0 0.00 0.00 0.00 69 1013.5
20260507094538 66 0.0 0.0 0.00 0.00 0.00 66 1013.4
20260507093518 66 0.0 0.0 0.00 0.00 0.00 66 1013.4
20260507092538 66 0.0 0.0 0.00 0.00 0.00 67 1013.4
20260507091518 66 0.0 0.0 0.00 0.00 0.00 67 1013.3
20260507090518 66 0.0 0.0 0.00 0.00 0.00 67 1013.3
20260507085518 66 0.0 0.0 0.00 0.00 0.00 68 1013.3
20260507084518 65 0.0 0.0 0.00 0.00 0.00 70 1013.3
20260507083518 65 0.0 0.0 0.00 0.00 0.00 72 1013.3
20260507082518 65 0.0 0.0 0.00 0.00 0.00 73 1013.3
20260507081539 64 0.0 0.0 0.00 0.00 0.00 74 1013.4
20260507080518 63 0.0 0.0 0.00 0.00 0.00 76 1013.3
20260507075518 63 0.0 0.0 0.00 0.00 0.00 76 1013.2
20260507074518 63 0.0 0.0 0.00 0.00 0.00 76 1013.0
20260507073518 63 0.0 0.0 0.00 0.00 0.00 76 1012.9
20260507072518 63 0.0 0.0 0.00 0.00 0.00 77 1012.9
20260507071518 62 0.0 0.0 0.00 0.00 0.00 78 1012.8
20260507070518 61 0.0 0.0 0.00 0.00 0.00 80 1012.6
20260507065538 61 0.0 0.0 0.00 0.00 0.00 80 1012.5
20260507064518 61 0.0 0.0 0.00 0.00 0.00 81 1012.5
20260507063518 60 0.0 0.0 0.00 0.00 0.00 83 1012.6
20260507062518 59 0.0 0.0 0.00 0.00 0.00 83 1012.4
20260507061518 59 0.0 0.0 0.00 0.00 0.00 82 1012.4
20260507060559 59 0.0 0.0 0.00 0.00 0.00 84 1012.4
20260507055542 58 0.0 0.0 0.00 0.00 0.00
20260507055018 0 0.0 0.0 0.00 0.00 0.00
20260507054018 0 0.0 0.0 0.00 0.00 0.00
20260507053548 0 0.0 0.0 0.00 0.00 0.00
20260507053018 0 0.0 0.0 0.00 0.00 0.00
20260507052538 0 0.0 0.0 0.00 0.00 0.00
20260507051518 0 0.0 0.0 0.00 0.00 0.00
20260507051051 55 0.0 0.0 0.00 0.00 0.00 81 1011.8
20260507050600 55 0.0 0.0 0.00 0.00 0.00 81 1011.8
20260507045518 56 0.0 0.0 0.00 0.00 0.00 81 1011.7
20260507044518 55 0.0 0.0 0.00 0.00 0.00 83 1011.6
20260507043519 55 0.0 0.0 0.00 0.00 0.00 83 1011.5
20260507042518 55 0.0 0.0 0.00 0.00 0.00 83 1011.3
20260507041518 55 0.0 0.0 0.00 0.00 0.00 82 1011.3
20260507040518 55 0.0 0.0 0.00 0.00 0.00 83 1011.6
20260507035518 56 0.0 0.0 0.00 0.00 0.00 83 1011.6
20260507034518 56 0.0 0.0 0.00 0.00 0.00 83 1011.7
20260507033519 56 0.0 0.0 0.00 0.00 0.00 83 1011.7
20260507032518 56 0.0 0.0 0.00 0.00 0.00 84 1011.7
20260507031519 56 0.0 0.0 0.00 0.00 0.00 84 1011.6
20260507030519 56 0.0 0.0 0.00 0.00 0.00 84 1011.5
20260507025538 56 0.0 0.0 0.00 0.00 0.00 84 1011.4
20260507024518 56 0.0 0.0 0.00 0.00 0.00 85 1011.4
20260507023518 56 0.0 0.0 0.00 0.00 0.00 86 1011.5
20260507022518 57 0.0 0.0 0.00 0.00 0.00 86 1011.4
20260507021538 57 0.0 0.0 0.00 0.00 0.00 86 1011.4
20260507020518 57 0.0 0.0 0.00 0.00 0.00 85 1011.5
20260507015519 57 0.0 0.0 0.00 0.00 0.00 85 1011.6
20260507014518 57 0.0 0.0 0.00 0.00 0.00 85 1011.6
20260507013518 57 0.0 0.0 0.00 0.00 0.00 85 1011.8
20260507012518 57 0.0 0.0 0.00 0.00 0.00 84 1011.8
20260507011518 58 0.0 0.0 0.00 0.00 0.00 84 1011.9
20260507010520 58 0.0 0.0 0.00 0.00 0.00 85 1012.0
20260507005519 57 0.0 0.0 0.00 0.00 0.00 85 1012.1
20260507004518 57 0.0 0.0 0.00 0.00 0.00 85 1012.2
20260507003539 57 0.0 0.0 0.00 0.00 0.00 85 1012.3
20260507002518 57 0.0 0.0 0.00 0.00 0.00 85 1012.5
20260507001519 57 0.0 0.0 0.00 0.00 0.00 85 1012.6
20260507000518 57 0.0 0.0 0.00 0.00 0.00 85 1012.5
20260506235518 57 0.0 0.0 0.00 0.00 0.00 85 1012.7
20260506234518 57 0.0 0.0 0.00 0.00 0.00 85 1012.7
20260506233521 57 0.0 0.0 0.00 0.00 0.00 84 1012.7
20260506232558 58 0.0 0.0 0.00 0.00 0.00 84 1012.6
20260506231538 58 0.0 0.0 0.00 0.00 0.00 84 1012.6
20260506230518 58 0.0 0.0 0.00 0.00 0.00 83 1012.7
20260506225518 58 0.0 0.0 0.00 0.00 0.00 83 1012.8
20260506224519 59 0.0 0.0 0.00 0.00 0.00 83 1012.9
20260506223518 59 0.0 0.0 0.00 0.00 0.00 82 1012.9
20260506222519 59 0.0 0.0 0.00 0.00 0.00 82 1012.9
20260506221519 59 0.0 0.0 0.00 0.00 0.00 81 1012.9
20260506220539 59 0.0 0.0 0.00 0.00 0.00 81 1012.9
20260506215519 59 0.0 0.0 0.00 0.00 0.00 81 1012.8
20260506214519 59 0.0 0.0 0.00 0.00 0.00 81 1012.8
20260506213520 59 0.0 0.0 0.00 0.00 0.00 81 1012.7
20260506212539 60 0.0 0.0 0.00 0.00 0.00 80 1012.7
20260506211519 60 0.0 0.0 0.00 0.00 0.00 79 1012.6
20260506210519 60 0.0 0.0 0.00 0.00 0.00 79 1012.5
20260506205519 60 0.0 0.0 0.00 0.00 0.00 78 1012.6
20260506204520 61 0.0 0.0 0.00 0.00 0.00 77 1012.5
20260506203520 61 0.0 0.0 0.00 0.00 0.00 76 1012.5
20260506202519 61 0.0 0.0 0.00 0.00 0.00 76 1012.3
20260506201519 62 0.0 0.0 0.00 0.00 0.00 74 1012.3
20260506200519 62 0.0 0.0 0.00 0.00 0.00 73 1012.2
20260506195520 63 0.0 0.0 0.00 0.00 0.00 72 1012.1
20260506194519 63 0.0 0.0 0.00 0.00 0.00 70 1011.9
20260506193520 64 0.0 0.0 0.00 0.00 0.00 67 1011.6
20260506192520 64 0.0 0.0 0.00 0.00 0.00 65 1011.5
20260506191540 65 0.0 0.0 0.00 0.00 0.00 62 1011.4
20260506190519 66 0.0 0.0 0.00 0.00 0.00 59 1011.4
20260506185520 67 0.0 0.0 0.00 0.00 0.00 55 1011.3
20260506184519 68 0.0 0.0 0.00 0.00 0.00 53 1011.2
20260506183519 68 0.0 0.0 0.00 0.00 0.00 50 1011.1
20260506182519 69 0.0 0.0 0.00 0.00 0.00 48 1011.0
20260506181540 69 0.0 0.0 0.00 0.00 0.00 46 1010.9
20260506180519 70 0.0 0.0 0.00 0.00 0.00 45 1010.9
20260506175519 70 0.0 0.0 0.00 0.00 0.00 44 1010.9
20260506174518 70 0.0 0.0 0.00 0.00 0.00 45
20260506173518 71 0.0 0.0 0.00 0.00 0.00 44
20260506172559 71 0.0 0.0 0.00 0.00 0.00 44
20260506171519 72 0.0 0.0 0.00 0.00 0.00 44 1010.9
20260506170518 72 0.0 0.0 0.00 0.00 0.00 43 1011.0
20260506165519 73 0.0 0.0 0.00 0.00 0.00 42 1011.0
20260506164519 73 0.0 0.0 0.00 0.00 0.00 42 1011.0
20260506163540 73 0.0 0.0 0.00 0.00 0.00 41 1011.0
20260506162519 73 0.0 0.0 0.00 0.00 0.00 42 1011.1
20260506161519 74 0.0 0.0 0.00 0.00 0.00 42 1011.1
20260506160518 74 0.0 0.0 0.00 0.00 0.00 41 1011.1
20260506155540 74 0.0 0.0 0.00 0.00 0.00 40 1011.1
20260506154518 75 0.0 0.0 0.00 0.00 0.00 40 1011.2
20260506153518 74 0.0 0.0 0.00 0.00 0.00 41 1011.3
20260506152519 74 0.0 0.0 0.00 0.00 0.00 40 1011.4
20260506151518 74 0.0 0.0 0.00 0.00 0.00 40 1011.4